[[{"header":{"parameterUnit":"m.s-1","parameterCategory":1,"la1":30.2991,"la2":30.254,"lo1":-89.0895,"lo2":-89.0444,"dy":0.0017,"dx":0.0017,"nx":28,"ny":28,"refTime":"2023-09-20T21:00:00:Z","depth":0,"parameterNumber":2,"parameterNumberName":"U-component_of_WINDS"},"data":[0,0,0,0,0,0,0,0,0,0,0,0,0,0,0,0,0,0,0,0,0,0,0,0,0,0,0,0,0,0,0,0,0,0,0,0,0,0,0,0,0,0,0,0,0,0,0,0,0,0,0,0,0,0,0,0,0,0,-6.8005,-6.8006,0,-6.8103,-6.8104,-6.8105,-6.797,-6.7965,-6.796,-6.7956,-6.8053,-6.806,-6.8067,0,0,0,0,0,0,0,0,0,0,0,0,0,-6.7697,-6.7704,-6.8004,-6.8006,-6.8007,-6.8102,-6.8104,-6.8105,-6.7971,-6.7965,-6.7959,-6.7954,-6.8051,-6.8059,-6.8067,0,0,0,0,0,0,0,0,0,0,0,0,0,-6.7816,-6.7706,-6.8004,-6.7952,-6.7948,-6.8102,-6.8104,-6.8105,-6.7972,-6.7965,-6.7958,-6.7951,-6.8048,-6.8058,-6.8069,-6.8278,0,0,-6.8101,-6.8105,0,0,0,0,0,0,0,0,-6.781,-6.7828,-6.7958,-6.7956,-6.7952,-6.8017,-6.8031,-6.8163,-6.7974,-6.7963,-6.7956,-6.7947,-6.8047,-6.8057,-6.8091,-6.8282,-6.8287,-6.8102,-6.8108,-6.8113,-6.8116,0,0,0,0,0,0,0,-6.7802,-6.7823,-6.8043,-6.796,-6.7956,-6.7922,-6.7931,-6.8055,-6.8044,-6.7963,-6.7954,-6.7967,-6.8043,-6.8081,-6.8092,-6.8288,-6.8102,-6.8111,-6.8117,-6.8122,-6.8655,-6.8662,0,0,0,0,0,0,-6.78,-6.7817,-6.804,-6.8046,-6.7862,-6.7933,-6.7943,-6.8003,-6.8042,-6.8041,-6.7973,-6.7961,-6.8066,-6.808,-6.8095,-6.834,-6.8113,-6.8123,-6.8129,-6.8647,-6.8656,-6.8665,0,0,0,0,0,0,-6.7794,-6.7822,-6.8036,-6.7929,-6.7954,-6.7946,-6.8014,-6.8009,-6.8046,-6.805,-6.8047,-6.8014,-6.8061,-6.808,-6.8233,-6.8341,-6.8127,-6.8137,-6.8638,-6.865,-6.8661,-6.8833,0,0,0,0,0,0,-6.7786,-6.782,-6.79,-6.7932,-6.796,-6.8174,-6.8021,-6.8016,-6.8065,-6.8049,-6.8087,-6.8086,-6.8057,-6.8218,-6.8244,-6.8352,-6.8145,-6.8628,-6.8643,-6.8657,-6.8817,-6.8849,-6.8876,0,0,0,0,0,-6.7776,-6.7944,-6.7905,-6.7932,-6.806,-6.818,-6.8196,-6.816,-6.8075,-6.8154,-6.8156,-6.8085,-6.8327,-6.8235,-6.8263,-6.8376,-6.8621,-6.8639,-6.8656,-6.8804,-6.8843,-6.8875,0,0,0,0,0,0,-6.7922,-6.7947,-6.7904,-6.8088,-6.8134,-6.8157,-6.8255,-6.8202,-6.8271,-6.8253,-6.8205,-6.8215,-6.8378,-6.8393,-6.829,-6.858,-6.8459,-6.8483,-6.8563,-6.8599,-6.8628,-6.8618,-6.8154,0,0,0,0,0,-6.7977,-6.8074,-6.809,-6.8251,-6.8276,-6.8263,-6.8314,-6.8283,-6.8327,-6.8345,-6.8358,-6.8403,-6.8489,-6.8546,-6.8625,-6.8821,-6.8825,-6.8913,-6.8942,-6.8966,-6.8985,-6.9088,-6.9125,-6.8722,-6.8722,-6.8722,0,0,-6.8089,-6.8115,-6.8178,-6.8281,-6.8312,-6.8412,-6.828,-6.8391,-6.8463,-6.8361,-6.8505,-6.8518,-6.8565,-6.874,-6.8818,-6.8757,-6.9099,-6.8989,-6.9008,-6.9014,-6.911,-6.9148,-6.9182,-6.8734,-6.8732,-6.873,0,0,-6.8343,-6.8374,-6.851,-6.8545,-6.8596,-6.8586,-6.862,-6.8653,-6.8657,-6.8802,-6.8727,-6.8814,-6.8963,-6.8999,-6.9036,-6.9308,-6.9244,-6.9336,-6.9487,-6.9587,-6.9619,-6.9646,-6.9739,-6.9774,-6.9357,-6.9357,-6.9358,0,-6.8474,-6.8623,-6.8587,-6.8704,-6.875,-6.8666,-6.8801,-6.8837,-6.891,-6.8944,-6.8876,-6.9062,-6.9088,-6.9268,-6.9335,-6.937,-6.9404,-6.9328,-6.9618,-6.9645,-6.967,-6.9758,-6.9794,-6.9368,-6.9367,-6.9365,-6.9364,0,-6.8781,-6.8886,-6.899,-6.9064,-6.9123,-6.9249,-6.923,-6.9295,-6.926,-6.9258,-6.9406,-6.9435,-6.9518,-6.956,-6.9527,-6.9736,-6.9697,-6.9626,-6.9502,-6.972,-6.9801,-6.9835,-6.9383,-6.9379,-6.9376,-6.9373,0,0,-6.9123,-6.9179,-6.9217,-6.9249,-6.9301,-6.938,-6.9503,-6.9586,-6.964,-6.9695,-6.9794,-6.9925,-6.9858,-6.9902,-6.9873,-6.9962,-7.0171,-6.9878,-6.9878,-6.9927,-7.0399,-7.0448,-7.0488,-7.0132,-7.0138,-7.0143,-7.0393,0,-6.9373,-6.9585,-6.9558,-6.9761,-6.9856,-6.9779,-6.9886,-6.9928,-6.9931,-7.0011,-7.0013,-7.0104,-7.0013,-7.0038,-7.0123,-7.0127,-7.0264,-7.011,-7.022,-7.0224,-7.0204,-7.0531,-7.0583,-7.0818,-7.0426,-7.0431,-7.0435,0,-6.969,-6.9759,-6.9972,-7.0009,-7.0047,-7.0144,-7.0217,-7.0296,-7.0343,-7.0338,-7.0389,-7.0344,-7.0466,-7.0347,-7.0512,-7.0407,-7.0452,-7.0462,-7.047,-7.0473,-7.0338,-7.0538,-7.0892,-7.0925,-7.0486,-7.0482,-7.0478,0,-6.9912,-7.0058,-7.0204,-7.0235,-7.0283,-7.0352,-7.0375,-7.0415,-7.0467,-7.0532,-7.0564,-7.0643,-7.0684,-7.0746,-7.0723,-7.0639,-7.0892,-7.0771,-7.0888,-7.0889,-7.0939,-7.0935,-7.13,-7.0979,-7.0979,-7.0978,-7.0977,0,-7.019,-7.0322,-7.0304,-7.0393,-7.0539,-7.0507,-7.0652,-7.0665,-7.0703,-7.0791,-7.0733,-7.0817,-7.0785,-7.0868,-7.0852,-7.0989,-7.101,-7.1007,-7.1,-7.1009,-7.1009,-7.1032,-7.1013,-7.0988,-7.0985,-7.0984,-7.0982,0,-7.0459,-7.0453,-7.0606,-7.0641,-7.0653,-7.0758,-7.0787,-7.087,-7.087,-7.0983,-7.1008,-7.1008,-7.1102,-7.1088,-7.1193,-7.1182,-7.1352,-7.1328,-7.1335,-7.1327,-7.1443,-7.143,-7.183,-7.1879,-7.1534,-7.1537,-7.154,0,-7.0632,-7.0733,-7.078,-7.0836,-7.0865,-7.0957,-7.1009,-7.0984,-7.1041,-7.1104,-7.1179,-7.1269,-7.1338,-7.1492,-7.15,-7.158,-7.1553,-7.1689,-7.1564,-7.157,-7.1549,-7.154,-7.1548,-7.1711,-7.1715,-7.1718,-7.172,0,-7.094,-7.0933,-7.1013,-7.1093,-7.1159,-7.122,-7.1275,-7.1324,-7.1304,-7.1371,-7.1468,-7.1522,-7.1631,-7.1719,-7.1795,-7.1816,-7.1764,-7.1761,-7.1791,-7.1797,-7.1795,-7.1792,-7.1395,-7.175,-7.1747,-7.1745,-7.1743,-7.1742,-7.1162,-7.1247,-7.1294,-7.1385,-7.1425,-7.1478,-7.1557,-7.1569,-7.165,-7.1736,-7.1717,-7.1825,-7.1871,-7.1967,-7.1998,-7.2081,-7.2031,-7.2076,-7.2086,-7.2096,-7.2107,-7.1789,-7.2096,-7.2095,-7.2094,-7.2093,-7.2093,0,-7.1461,-7.1489,-7.1574,-7.1654,-7.1726,-7.1676,-7.1735,-7.1797,-7.1893,-7.1941,-7.2012,-7.2123,-7.2209,-7.2226,-7.2308,-7.2372,-7.235,-7.2393,-7.2385,-7.239,-7.215,-7.2113,-7.241,-7.241,-7.241,-7.241,-7.2409,-7.2409,-7.1625,-7.1765,-7.1765,-7.1924,-7.195,-7.2057,-7.2094,-7.2143,-7.218,-7.2307,-7.2379,-7.2391,-7.2426,-7.2511,-7.2587,-7.259,-7.262,-7.2672,-7.2665,-7.2439,-7.2407,-7.2377,-7.2341,-7.2681,-7.2681,-7.2897,-7.2899,-7.2901]},{"header":{"parameterUnit":"m.s-1","parameterCategory":1,"la1":30.2991,"la2":30.254,"lo1":-89.0895,"lo2":-89.0444,"dy":0.0017,"dx":0.0017,"nx":28,"ny":28,"refTime":"2023-09-20T21:00:00:Z","depth":0,"parameterNumber":3,"parameterNumberName":"V-component_of_WINDS"},"data":[0,0,0,0,0,0,0,0,0,0,0,0,0,0,0,0,0,0,0,0,0,0,0,0,0,0,0,0,0,0,0,0,0,0,0,0,0,0,0,0,0,0,0,0,0,0,0,0,0,0,0,0,0,0,0,0,0,0,-1.4255,-1.4254,0,-1.4092,-1.409,-1.4088,-1.3963,-1.3962,-1.3961,-1.3959,-1.3796,-1.3793,-1.3789,0,0,0,0,0,0,0,0,0,0,0,0,0,-1.4462,-1.4458,-1.4255,-1.4253,-1.4251,-1.4092,-1.409,-1.4088,-1.3963,-1.3962,-1.396,-1.3959,-1.3797,-1.3793,-1.3789,0,0,0,0,0,0,0,0,0,0,0,0,0,-1.4343,-1.4457,-1.4256,-1.417,-1.4161,-1.4092,-1.409,-1.4087,-1.3963,-1.3962,-1.396,-1.3958,-1.3798,-1.3793,-1.3789,-1.3794,0,0,-1.3774,-1.3771,0,0,0,0,0,0,0,0,-1.435,-1.4335,-1.4185,-1.4176,-1.4165,-1.4046,-1.4102,-1.3989,-1.3964,-1.4039,-1.3959,-1.3957,-1.3881,-1.3869,-1.3842,-1.3786,-1.3779,-1.3773,-1.377,-1.3768,-1.3767,0,0,0,0,0,0,0,-1.4358,-1.4342,-1.4191,-1.4183,-1.4171,-1.414,-1.4121,-1.408,-1.3972,-1.4032,-1.4022,-1.4004,-1.3875,-1.3847,-1.3837,-1.3777,-1.3773,-1.3769,-1.3766,-1.3764,-1.3713,-1.3714,0,0,0,0,0,0,-1.4379,-1.4349,-1.4196,-1.4186,-1.4255,-1.4138,-1.4117,-1.4086,-1.3972,-1.3952,-1.4006,-1.3999,-1.3856,-1.3843,-1.3831,-1.3828,-1.3768,-1.3764,-1.3761,-1.3711,-1.3713,-1.3715,0,0,0,0,0,0,-1.4384,-1.4367,-1.4202,-1.4265,-1.4241,-1.4136,-1.4103,-1.4084,-1.4056,-1.3952,-1.3932,-1.3998,-1.3855,-1.3838,-1.3803,-1.3821,-1.3761,-1.3757,-1.3709,-1.3712,-1.3714,-1.3824,0,0,0,0,0,0,-1.4391,-1.4369,-1.437,-1.4266,-1.4239,-1.4178,-1.4104,-1.4082,-1.4047,-1.4037,-1.3939,-1.3921,-1.3852,-1.3811,-1.3798,-1.3813,-1.3753,-1.3707,-1.3711,-1.3713,-1.3818,-1.383,-1.384,0,0,0,0,0,-1.4398,-1.4409,-1.4371,-1.4353,-1.4238,-1.4179,-1.4163,-1.4083,-1.4049,-1.4049,-1.3982,-1.3924,-1.382,-1.3808,-1.3793,-1.3807,-1.3706,-1.371,-1.3713,-1.3814,-1.3827,-1.3839,0,0,0,0,0,0,-1.4522,-1.4394,-1.435,-1.4328,-1.4265,-1.4158,-1.4156,-1.41,-1.4047,-1.4039,-1.3942,-1.3921,-1.3896,-1.3847,-1.3836,-1.3804,-1.3756,-1.3756,-1.3837,-1.385,-1.386,-1.3873,-1.3749,0,0,0,0,0,-1.4546,-1.4508,-1.4399,-1.4389,-1.4359,-1.4263,-1.4235,-1.4177,-1.4108,-1.4082,-1.4012,-1.3949,-1.3901,-1.3872,-1.3823,-1.3809,-1.3786,-1.3811,-1.3821,-1.3831,-1.3833,-1.382,-1.383,-1.3727,-1.3726,-1.3726,0,0,-1.4597,-1.4522,-1.4505,-1.4412,-1.4356,-1.4319,-1.4242,-1.4207,-1.4179,-1.4077,-1.4039,-1.3985,-1.3907,-1.3883,-1.3868,-1.3841,-1.3855,-1.3835,-1.3843,-1.3841,-1.3825,-1.3835,-1.3843,-1.3729,-1.3728,-1.3728,0,0,-1.467,-1.461,-1.4594,-1.4539,-1.4454,-1.4389,-1.4385,-1.4285,-1.4245,-1.4205,-1.4127,-1.4091,-1.4012,-1.3959,-1.3922,-1.397,-1.3914,-1.3956,-1.4013,-1.4002,-1.401,-1.4017,-1.4033,-1.404,-1.3959,-1.3959,-1.3959,0,-1.4745,-1.4685,-1.4594,-1.4562,-1.4523,-1.4426,-1.4409,-1.436,-1.4265,-1.4241,-1.4211,-1.4107,-1.4048,-1.4008,-1.4019,-1.3993,-1.3985,-1.3969,-1.4016,-1.4022,-1.4027,-1.4041,-1.4048,-1.3965,-1.3964,-1.3963,-1.3963,0,-1.478,-1.4739,-1.4737,-1.4644,-1.4604,-1.4581,-1.4486,-1.4457,-1.4401,-1.434,-1.4298,-1.4223,-1.4156,-1.4141,-1.4088,-1.4093,-1.4079,-1.4034,-1.3984,-1.4044,-1.4056,-1.4061,-1.3973,-1.3971,-1.3969,-1.3968,0,0,-1.4932,-1.4785,-1.4786,-1.4741,-1.4638,-1.4605,-1.4576,-1.4508,-1.4484,-1.442,-1.4393,-1.4326,-1.4282,-1.424,-1.4179,-1.4169,-1.421,-1.4124,-1.4121,-1.4143,-1.421,-1.4246,-1.4254,-1.4171,-1.4172,-1.4172,-1.4216,0,-1.499,-1.4931,-1.4846,-1.4815,-1.4776,-1.468,-1.4654,-1.4588,-1.4528,-1.4486,-1.4419,-1.4373,-1.4319,-1.4293,-1.4278,-1.4208,-1.4222,-1.4204,-1.4145,-1.4144,-1.417,-1.426,-1.4299,-1.4344,-1.422,-1.4221,-1.4222,0,-1.5051,-1.4989,-1.4954,-1.4851,-1.4831,-1.4809,-1.4738,-1.4699,-1.4621,-1.4578,-1.4528,-1.4461,-1.4424,-1.4377,-1.4324,-1.4313,-1.4283,-1.4245,-1.4245,-1.4238,-1.4189,-1.4257,-1.4357,-1.4365,-1.4228,-1.4228,-1.4227,0,-1.5166,-1.5074,-1.504,-1.5005,-1.4883,-1.487,-1.4819,-1.4739,-1.4702,-1.464,-1.4615,-1.455,-1.4515,-1.4465,-1.4382,-1.4355,-1.4338,-1.4284,-1.4301,-1.4303,-1.4305,-1.4306,-1.4403,-1.4283,-1.4283,-1.4283,-1.4283,0,-1.5241,-1.5224,-1.5089,-1.5069,-1.5045,-1.4947,-1.4926,-1.4867,-1.4795,-1.4762,-1.4674,-1.4645,-1.4535,-1.4492,-1.4425,-1.4391,-1.4376,-1.434,-1.4323,-1.4349,-1.4354,-1.433,-1.4325,-1.4284,-1.4284,-1.4284,-1.4283,0,-1.5367,-1.5276,-1.5233,-1.5119,-1.509,-1.5078,-1.4981,-1.4958,-1.489,-1.4848,-1.4833,-1.4728,-1.4672,-1.4582,-1.4501,-1.4456,-1.4434,-1.4405,-1.4461,-1.445,-1.4473,-1.4472,-1.4559,-1.4565,-1.4442,-1.4443,-1.4444,0,-1.5422,-1.5406,-1.5289,-1.5259,-1.521,-1.5163,-1.5124,-1.5024,-1.4988,-1.4895,-1.4882,-1.4819,-1.4763,-1.4679,-1.4595,-1.4532,-1.4501,-1.4535,-1.4491,-1.4517,-1.4502,-1.4505,-1.4502,-1.4547,-1.4549,-1.455,-1.4552,0,-1.553,-1.5484,-1.543,-1.536,-1.5314,-1.5255,-1.5191,-1.5171,-1.5058,-1.502,-1.4961,-1.4918,-1.4832,-1.477,-1.4694,-1.4641,-1.4578,-1.4565,-1.4566,-1.4594,-1.4627,-1.4609,-1.449,-1.4565,-1.4563,-1.4562,-1.4562,-1.4561,-1.5622,-1.5602,-1.5516,-1.5458,-1.5398,-1.5339,-1.531,-1.5237,-1.5185,-1.5107,-1.5051,-1.4995,-1.4914,-1.4804,-1.4754,-1.4709,-1.4681,-1.4682,-1.4683,-1.4685,-1.4695,-1.4632,-1.4695,-1.4694,-1.4694,-1.4693,-1.4693,0,-1.5726,-1.5664,-1.5611,-1.5522,-1.5476,-1.5416,-1.5341,-1.5307,-1.5258,-1.5187,-1.5132,-1.5063,-1.5001,-1.4911,-1.4842,-1.4823,-1.4792,-1.4809,-1.481,-1.4799,-1.4724,-1.473,-1.4835,-1.4835,-1.4835,-1.4835,-1.4835,-1.4835,-1.5775,-1.5737,-1.568,-1.5611,-1.5549,-1.5492,-1.5454,-1.5399,-1.5341,-1.5267,-1.5214,-1.5154,-1.5075,-1.4998,-1.4939,-1.4913,-1.4893,-1.4919,-1.4885,-1.4817,-1.4804,-1.4792,-1.4798,-1.4915,-1.4915,-1.4964,-1.4964,-1.4965]}]]